Вернуться в каталог

JIELONG-3 R/B

АктивенНаукаPO
NORAD 68690·ROCKET BODY·🇨🇳 China

Запущен Apr 11, 2026 с South China Sea Launch Area

Loading…

Ближайшие Пролёты (ближайшие 24 часа)

TLE

СвежийSource: Space-Track

Эпоха: Sep 14, 2026, 23:13 UTC

1 68690U 26078C   26257.96739283  .00004540  00000-0  20474-3 0  9994
2 68690  86.6398 241.8948 0434668 208.2308 149.4725 14.63845801 22861

Отслеживайте JIELONG-3 R/B в реальном времени с AllMySat

Download on the App Store